Location: Oberkirch
(48.5323°N, 8.0787°E)
Time: 20:55:24
(UTC+00:00)

Tiros 1 - Pass Details

Date: 23 February 2026
Orbit: 618 x 649 km, 48.4° (Epoch: 9 March)

Event Time Altitude Azimuth Distance (km) Brightness Sun altitude
Rises 11:51:28 0° 284° (WNW) 2,901 10.4 31.7°
Reaches altitude 10° 11:54:03 10° 272° (W) 1,988 9.8 31.7°
Maximum altitude 11:57:53 27° 215° (SW) 1,192 9.9 31.6°
Drops below altitude 10° 12:01:42 10° 157° (SSE) 1,973 10.7 31.6°
Sets 12:04:15 0° 145° (SE) 2,875 11.1 31.5°
